Location: Albany
(35.0170°S, 117.8920°E)
Time: 02:09:29
(UTC+08:00)

Vanguard 1 - Pass Details

Date: 31 January 2021
Orbit: 649 x 3833 km, 34.2° (Epoch: 25 February)

Event Time Altitude Azimuth Distance (km) Brightness Sun altitude
Rises 04:05:25 0° 262° (W) 3,240 - -15.4°
Reaches altitude 10° 04:08:02 10° 268° (W) 2,156 - -15.0°
Exits shadow 04:09:38 20° 276° (W) 1,532 10.6 -14.7°
Maximum altitude 04:12:27 46° 341° (NNW) 881 9.5 -14.3°
Drops below altitude 10° 04:16:55 10° 54° (NE) 2,185 12.1 -13.5°
Sets 04:19:36 0° 60° (ENE) 3,290 13.2 -13.0°
